Regional Weather Roundup
Issued by NWS

Home | Current Version | Previous Version | Graphics & Text | Print | Product List | Glossary On
Versions: 1 2 3 4 5 6 7 8 9 10 11 12 13 14 15 16 17 18 19 20 21 22 23 24 25 26 27 28 29 30 31 32 33 34 35 36 37 38 39 40 41 42 43 44 45 46 47 48 49 50
889
ASUS45 KTFX 261410
RWRMT
MONTANA REGIONAL WEATHER ROUNDUP
NATIONAL WEATHER SERVICE GREAT FALLS MT
800 AM MDT SAT MAY 26 2018

NOTE: "FAIR" INDICATES FEW OR NO CLOUDS BELOW 12000 FEET WITH NO
SIGNIFICANT WEATHER AND/OR OBSTRUCTIONS TO VISIBILITY.

MTZ001>007-043-261500-
WEST OF THE DIVIDE

CITY           SKY/WX    TMP DP  RH WIND       PRES   REMARKS
KALISPELL      CLOUDY    57  57 100 E3        29.87R
MISSOULA       CLOUDY    56  52  86 W5        29.91R
BUTTE          CLOUDY    51  45  79 NE5       29.96S
MULLAN PASS    LGT RAIN  45  45 100 W5        29.97R VSB 1/4
ANACONDA         N/A     57  48  72 CALM      29.94S
DEER LODGE       N/A     55  52  88 SE5       29.95F
HAMILTON         N/A     54  48  82 MISG      29.91S
RONAN            N/A     59  55  88 S5        29.90
$$

MTZ008-052>055-261500-
SOUTHWEST MONTANA

CITY           SKY/WX    TMP DP  RH WIND       PRES   REMARKS
BOZEMAN        FAIR      56  48  74 CALM      29.90R
DILLON         FAIR      50  47  89 SW7       29.92R
ENNIS          SUNNY     50  46  87 SW3       29.95R
W YELLOWSTONE  FAIR      48  41  76 CALM      29.97S
$$

MTZ009-010-012-014-046-048-049-054-261500-
EAST SLOPES AND CENTRAL MONTANA

CITY           SKY/WX    TMP DP  RH WIND       PRES   REMARKS
CUT BANK       FAIR      62  48  60 SW13      29.80R
GREAT FALLS    FAIR      63  49  60 SW13      29.82R
MALMSTROM AFB  FAIR      61  52  72 SW3       29.82R
HELENA         FAIR      61  51  70 NE5       29.86F
CHOTEAU          N/A     61  50  67 S12       29.83R
WHITE SULPHUR    N/A     54  48  82 CALM      29.88S
$$

MTZ011-013-016-021-045-047-050-051-261500-
NORTH CENTRAL MONTANA

CITY           SKY/WX    TMP DP  RH WIND       PRES   REMARKS
HAVRE          FAIR      63  53  70 NW5       29.73S
LEWISTOWN      FAIR      60  52  74 S6        29.83S
N BAR RANCH    FAIR      63  52  67 NW7       29.86R
$$

MTZ017>020-022>027-061-062-261500-
NORTHEAST MONTANA

CITY           SKY/WX    TMP DP  RH WIND       PRES   REMARKS
GLASGOW        FAIR      69  54  58 SE9       29.75R
GLENDIVE       FAIR      66  54  65 S6        29.80S
JORDAN           N/A     63  55  75 SE3       29.76F
MALTA          SUNNY     61  54  77 SW6       29.75R
SIDNEY         FAIR      64  58  80 S7        29.78R
WOLF POINT     FAIR      66  56  70 CALM      29.76S
PLENTYWOOD       N/A     66  54  63 CALM      29.77S
POPLAR           N/A     64  55  72 CALM      29.76S
$$

MTZ028>42-056>058-261500-
SOUTHCENTRAL AND SOUTHEAST MONTANA

CITY           SKY/WX    TMP DP  RH WIND       PRES   REMARKS
BAKER          FAIR      67  57  70 E7        29.83S
BILLINGS       PTSUNNY   62  56  80 W6        29.78S
LIVINGSTON     FAIR      57  48  72 NW8       29.86R
MILES CITY     FAIR      67  57  70 SE5       29.77S
BIG TIMBER     SUNNY     61  48  63 W7        29.84S
FORSYTH          N/A     68  57  68 NE5       29.75
LAUREL           N/A     64  55  72 W5        29.80R
ROUNDUP          N/A     61  52  72 E6        29.71F
$$

REGIONAL REPORTS...DAKOTAS

CITY           SKY/WX    TMP DP  RH WIND       PRES   REMARKS
WILLISTON      FAIR      67  55  65 CALM      29.77S
MINOT          FAIR      74  55  51 SW5       29.74S
DICKINSON      FAIR      74  55  51 SW5       29.80R
BEACH          FAIR      72  57  60 S6        29.84S
CROSBY         FAIR      68  57  68 CALM      29.78R
TIOGA          FAIR      66  57  72 CALM      29.79S
WATFORD CITY   FAIR      68  54  60 W3        29.77S
BISMARCK       FAIR      70  54  56 SW5       29.78S
GRAND FORKS    FAIR      75  58  55 W13       29.66R
FARGO          FAIR      76  56  49 W6        29.69S
BUFFALO SD       N/A     68  53  58 SE5       29.78R
RAPID CITY     FAIR      67  58  72 SE5       29.86S
$$

REGIONAL REPORTS...WYOMING/IDAHO/WASHINGTON

CITY           SKY/WX    TMP DP  RH WIND       PRES   REMARKS
GILLETTE         N/A     69  54  58 SE17      29.85S
SHERIDAN       FAIR      60  55  83 N3        29.80F
BUFFALO WY     FAIR      65  51  60 S8        29.86F
CODY           FAIR      65  45  48 SW5       29.88S
YELLOWSTONE LA   N/A     43  39  86 SE3       30.08R
IDAHO FALLS    FAIR      56  46  69 SW12      29.92R
SALMON         FAIR      53  49  86 CALM      29.91R
BOISE          FAIR      58  50  75 N10       29.88R
SPOKANE        FAIR      55  43  63 S13       29.90R
$$

REGIONAL REPORTS...ALBERTA

CITY           SKY/WX    TMP DP  RH WIND       PRES   REMARKS
CALGARY        CLOUDY    55  41  58 N21G30    29.83R
CARDSTON         N/A     63  45  51 W9          N/A
EDMONTON       SUNNY     54  48  82 NW8       29.81R
FORT MCMURRAY  PTSUNNY   57  55  94 W15       29.62F
HIGH LEVEL     PTSUNNY   52  41  66 VRB3      29.52S
LETHBRIDGE     PTSUNNY   68  50  52 W15       29.73R
LLOYDMINSTER   LGT RAIN  57  55  94 E6        29.68F
MEDICINE HAT   PTSUNNY   68  52  56 S9        29.68S
MILK RIVER       N/A     63  48  59 SW9         N/A
PEACE RIVER    MOSUNNY   52  32  46 SW17G24   29.74S
PINCHER CREEK    N/A     63  48  59 W20       29.80R
WATERTON GATE    N/A     57  45  62 SW15G22     N/A
$$

REGIONAL REPORTS...SASKATCHEWAN

CITY           SKY/WX    TMP DP  RH WIND       PRES   REMARKS
CORONACH         N/A     63  50  63 E3          N/A
CYPRESS HILLS    N/A     64  46  52 S8          N/A
ESTEVAN        SUNNY     68  55  64 NW3       29.76S
MOOSE JAW        N/A     68  55  64 SE6         N/A
PRINCE ALBERT  CLOUDY    59  55  88 CALM      29.73R
REGINA         MOSUNNY   63  57  82 VRB2      29.76R
ROCKGLEN         N/A     72  43  35 S9          N/A
SASKATOON      MOSUNNY   63  57  82 E5        29.71F
SWIFT CURRENT  SUNNY     68  50  52 SE10      29.72S
VAL MARIE        N/A     66  46  48 W2          N/A
$$




USA.gov is the U.S. government's official web portal to all federal, state and local government web resources and services.